Theta_e
314 313 314 317 319 320 322 324 323 322 321 320 319 317 320 322 321 320 320 322 323 323 323 323 323 323 320 335 353 353 353 357 357 362 360 354 349 348 349 347 344 334 332 332 335 340 340 339 339 341 342 343 343 341 338 338 336 330 330 332 333 332 333 333 332 330 328 327 328 330 332 334 336 337 339 339 338 337 338 337 337 336 337 337 337 337 337 336 334 334 335 335 335 334 332 334 336
313 317 321 322 322 324 327 325 322 321 319 318 319 318 320 322 320 318 320 320 321 322 322 322 322 321 322 339 352 357 356 354 354 357 355 350 348 348 347 347 342 334 331 331 336 342 344 342 340 342 343 343 343 341 339 338 336 331 330 334 334 333 334 334 332 330 329 329 331 334 336 337 337 338 339 338 335 336 337 337 337 338 337 337 338 338 338 337 335 333 333 335 334 332 332 333 334
313 320 325 326 324 324 326 324 322 318 317 317 317 321 321 320 318 319 320 319 321 320 322 321 321 323 332 347 351 358 357 353 353 352 351 350 348 347 347 346 342 334 332 332 335 342 345 344 342 342 344 344 344 342 339 338 336 332 332 335 335 334 334 333 332 331 332 331 333 337 338 338 337 338 340 337 334 336 338 337 338 338 338 338 338 339 339 338 336 334 333 332 330 331 332 332 332
313 321 325 327 324 321 325 325 326 320 317 315 313 320 320 319 319 320 320 320 322 320 322 319 329 340 346 354 350 352 354 352 353 352 351 350 348 347 346 346 343 336 334 335 335 340 344 346 345 344 345 345 345 344 340 338 335 332 333 337 337 336 335 335 334 333 334 333 335 337 338 338 338 339 339 335 335 338 339 338 337 338 339 339 339 339 339 338 336 333 333 329 324 328 332 331 331
314 322 324 325 324 320 325 326 326 320 318 315 311 318 320 319 321 320 320 322 321 321 323 317 336 351 352 352 350 352 353 354 353 351 351 348 347 346 345 346 343 338 339 340 336 338 343 346 346 346 347 346 346 345 341 338 335 333 334 337 337 337 337 338 337 334 334 334 334 335 336 337 338 339 337 334 337 339 340 339 338 338 338 338 339 339 338 337 335 333 331 326 319 324 330 331 330
316 320 321 322 323 321 324 325 324 319 319 319 315 318 320 320 320 320 321 321 321 323 320 320 341 354 354 351 349 352 354 355 353 350 350 347 347 345 345 345 342 342 343 343 339 338 342 345 346 347 347 347 347 345 342 338 335 334 334 336 337 339 340 340 339 335 333 334 333 333 335 337 338 338 335 334 337 339 339 338 338 339 338 338 339 338 338 337 337 334 331 326 317 318 326 330 329
318 319 321 321 321 321 325 324 323 321 321 321 318 318 319 319 320 320 320 320 324 324 319 332 347 354 354 351 351 352 352 354 353 350 350 347 347 345 345 344 342 343 343 344 340 338 343 345 347 347 347 347 347 345 343 339 336 335 334 336 338 340 341 340 338 335 333 333 332 331 334 337 338 338 336 335 338 339 338 337 338 339 339 339 339 338 338 337 337 334 333 329 319 315 321 327 328
320 319 320 321 320 321 323 321 320 321 321 320 319 320 320 319 321 320 320 320 322 324 320 328 344 356 354 351 354 354 351 352 351 350 349 347 347 345 345 343 343 344 343 344 339 338 343 345 347 347 347 347 346 345 342 340 337 335 335 338 339 340 340 339 336 334 333 332 334 335 334 337 338 337 336 336 339 339 338 338 339 339 339 340 339 339 338 337 336 334 333 330 322 317 319 325 327
320 320 320 321 322 320 318 318 318 319 319 319 319 322 322 319 320 320 319 319 320 324 322 322 342 359 354 352 356 354 351 352 350 349 348 347 347 345 344 342 343 344 344 344 338 338 344 345 346 346 346 346 345 344 342 340 338 336 337 339 340 340 339 337 334 332 332 332 336 337 335 336 338 336 336 338 339 339 338 339 340 339 340 340 339 339 338 337 336 334 332 328 322 320 320 323 326
320 319 321 322 323 320 316 315 316 319 319 318 319 320 321 319 320 320 319 320 320 321 326 336 348 356 353 354 356 353 351 351 349 349 348 347 347 345 344 343 344 344 343 344 336 338 343 343 345 346 346 346 345 344 342 340 340 339 339 340 339 338 337 335 332 331 331 333 336 336 334 335 336 336 336 338 340 339 339 339 340 340 340 339 338 338 337 336 335 333 331 325 322 323 324 326 329
321 318 320 322 322 319 316 315 315 319 318 318 319 319 320 319 320 320 319 319 321 330 337 346 353 352 353 356 356 353 351 350 349 349 348 347 346 344 344 344 344 343 344 342 335 339 344 343 344 345 346 345 344 343 341 341 340 339 340 339 337 336 335 333 331 330 331 333 336 335 334 334 335 336 336 338 340 340 339 340 340 340 339 338 338 337 337 335 333 332 330 324 321 325 329 330 332
320 319 319 320 319 318 317 315 314 319 318 317 319 319 320 319 320 319 321 320 323 343 348 347 351 352 355 357 355 352 351 350 350 348 348 347 345 344 344 344 344 343 343 338 333 340 344 343 343 344 345 344 343 343 341 341 340 339 338 338 337 336 333 332 331 332 333 334 335 336 336 336 335 336 337 338 339 339 340 340 340 339 339 338 337 336 335 334 333 332 330 324 320 324 331 331 331
319 320 319 319 319 316 316 314 315 320 318 318 319 319 320 319 320 319 322 319 323 344 349 348 349 354 358 357 354 353 352 350 349 348 348 346 345 344 344 344 344 343 343 336 333 341 344 343 344 343 344 344 343 342 340 340 339 338 338 339 339 335 334 335 335 336 336 336 337 338 337 337 336 336 337 338 338 339 340 340 340 339 339 338 337 335 334 333 332 332 330 326 321 323 330 330 330
319 320 319 320 320 317 316 315 315 316 316 319 319 320 320 319 321 321 321 322 334 345 347 351 349 355 359 357 356 356 353 348 348 349 347 346 345 344 344 343 343 342 341 337 334 341 344 343 344 343 343 343 342 341 339 339 339 338 338 340 339 334 337 339 339 339 339 338 338 338 336 337 338 337 337 337 337 338 340 340 339 339 338 337 336 335 334 332 332 331 330 327 322 322 328 330 331
318 318 319 319 318 316 316 316 315 314 317 320 318 321 320 320 322 321 322 323 337 344 343 348 347 357 360 357 358 355 350 347 348 348 347 346 345 344 344 342 342 341 340 338 337 341 343 343 344 343 343 342 342 341 340 340 339 339 339 340 337 336 339 341 340 340 340 339 338 337 337 337 338 338 338 336 336 338 339 339 339 338 337 335 334 334 333 332 332 332 330 328 322 319 324 329 330
317 317 317 318 316 315 316 316 316 314 317 319 318 321 319 321 321 321 325 322 334 342 343 344 344 353 355 354 356 350 348 348 347 347 347 346 344 344 344 343 342 341 341 339 340 341 342 342 343 343 342 342 341 341 341 341 340 339 340 338 336 338 340 341 341 341 341 339 337 337 337 338 338 338 338 337 337 338 337 338 337 336 335 334 333 333 333 332 332 332 331 327 324 322 324 329 331
316 316 317 317 316 314 316 316 316 316 317 319 319 320 318 320 320 322 324 324 339 345 344 344 342 347 349 352 352 348 348 347 347 347 348 347 345 345 343 343 341 341 341 340 341 341 341 342 342 341 341 341 341 341 341 341 340 339 338 337 337 339 340 340 341 341 341 340 338 337 337 337 338 338 338 338 338 337 337 337 337 336 335 333 333 333 333 332 332 332 331 328 327 328 329 331 332
316 318 317 315 315 315 317 317 317 317 318 318 319 319 319 318 318 321 321 328 343 346 345 347 346 348 350 351 349 348 349 347 348 348 348 347 345 345 343 343 342 341 341 341 341 341 342 341 340 340 341 341 340 340 340 339 339 337 336 337 338 339 339 339 339 340 340 339 338 337 336 337 336 337 337 337 338 338 337 337 337 336 334 333 333 334 333 333 332 332 331 329 328 331 331 331 332
316 319 318 314 315 315 318 318 317 317 317 317 318 318 318 318 317 320 318 326 343 347 348 350 350 352 351 350 349 349 350 348 347 347 347 347 345 344 343 343 342 342 341 341 341 340 341 339 338 341 340 339 337 337 338 338 337 336 335 337 338 338 338 338 338 339 338 338 338 338 337 337 336 335 334 335 336 337 337 336 336 334 333 333 333 334 333 332 333 332 332 330 328 330 331 331 332
316 317 317 315 316 316 317 318 317 317 317 317 318 318 318 318 317 320 316 324 344 350 351 354 352 354 354 351 350 350 349 343 341 341 343 346 346 345 344 343 342 342 341 341 341 339 340 339 339 341 337 335 335 335 336 336 336 336 336 337 337 337 337 337 338 338 338 338 340 338 337 338 337 334 333 335 334 334 334 333 333 332 330 331 333 334 333 332 332 332 332 331 329 329 331 332 333
316 315 315 315 316 316 317 318 318 317 317 317 317 317 317 318 317 319 317 324 345 351 352 356 351 353 355 352 351 348 341 336 337 339 340 341 343 344 345 344 343 342 342 341 341 340 341 340 340 339 335 334 335 334 335 335 336 336 336 337 336 336 336 337 338 339 338 339 340 337 336 338 338 335 334 336 335 332 332 332 331 330 328 328 331 333 333 332 332 332 332 332 330 329 331 333 334
315 315 315 315 315 315 316 318 318 317 318 316 317 317 316 318 317 319 317 318 339 348 347 350 349 350 353 353 350 342 339 341 340 339 339 339 338 340 343 343 342 342 342 341 340 340 341 341 339 339 338 336 335 334 333 333 335 337 336 336 336 336 337 338 339 339 339 339 339 336 336 339 338 336 336 336 335 333 333 332 330 329 328 328 329 332 332 332 332 332 332 332 332 332 333 334 335
315 315 315 316 316 315 317 317 318 317 317 316 316 316 316 318 317 319 318 316 332 343 342 344 347 348 349 351 347 342 346 348 341 338 339 339 338 338 339 339 340 342 341 339 338 339 340 340 339 340 339 337 337 336 334 333 335 337 337 337 337 335 337 339 339 338 337 338 338 336 337 338 338 337 337 336 335 334 333 331 329 330 330 328 329 330 331 331 331 332 332 333 333 334 335 335 336
314 315 315 316 316 316 317 317 317 317 316 316 316 316 316 317 317 317 317 318 332 340 339 341 345 346 347 348 346 348 352 346 338 337 339 339 337 337 337 337 339 340 338 337 338 338 339 340 340 339 339 338 339 339 337 334 334 337 338 338 336 334 337 338 337 336 336 336 336 336 336 338 338 337 336 335 334 334 332 331 331 332 331 330 330 330 330 330 331 332 332 333 333 333 334 335 335
314 314 315 316 316 316 317 317 317 317 316 317 316 316 316 316 317 316 317 316 326 338 339 341 344 344 347 348 349 353 350 342 336 336 340 339 336 336 337 337 338 338 336 337 338 338 339 339 339 339 339 338 339 339 336 334 334 337 338 337 336 334 336 338 337 336 336 335 335 335 335 337 337 336 336 334 334 333 332 333 334 334 332 330 332 332 331 330 330 332 331 332 333 333 333 334 334
314 315 315 315 316 316 317 317 318 317 316 317 316 316 316 317 316 315 318 316 324 338 340 341 345 345 348 351 354 353 345 340 337 338 340 338 336 336 337 335 335 336 336 338 338 338 339 340 340 339 339 338 338 337 335 335 336 337 337 337 336 335 336 338 337 336 336 335 335 335 335 336 336 335 335 334 334 333 333 334 335 335 333 331 332 333 333 331 330 331 332 332 333 333 333 332 333
316 316 316 315 316 316 316 317 317 317 317 316 316 316 316 317 316 315 318 316 324 338 340 340 344 345 348 351 354 351 344 341 339 339 339 336 336 337 337 334 333 335 337 338 339 339 340 341 341 340 339 338 337 337 335 335 337 337 337 337 336 336 336 337 337 337 337 336 335 335 335 336 336 335 335 334 334 334 334 334 334 334 333 332 331 331 333 332 330 331 332 332 332 332 332 332 333
316 316 316 316 317 317 317 317 316 317 317 317 316 316 317 316 315 315 317 316 319 334 341 341 343 344 347 351 353 352 347 342 339 338 337 335 335 336 336 335 335 336 337 339 340 340 340 341 341 340 339 338 337 337 336 336 337 337 337 337 337 336 337 337 337 337 337 336 335 335 335 336 335 335 334 334 334 334 334 334 334 333 333 333 330 330 333 333 331 331 331 332 333 332 332 333 333
315 315 314 315 317 316 317 317 317 317 316 318 317 315 315 315 315 315 316 318 316 330 340 340 342 344 345 350 353 354 347 340 339 338 337 335 335 336 335 336 337 336 337 339 340 340 340 340 340 339 338 338 338 337 337 337 337 337 337 337 338 337 337 337 337 337 336 336 335 335 335 336 335 334 334 334 334 333 333 333 333 333 333 333 332 332 334 333 332 332 332 333 332 332 333 332 331
315 314 314 315 315 314 315 316 316 316 315 318 315 312 316 316 316 315 316 317 315 328 339 340 343 345 344 350 352 354 349 342 341 338 337 336 335 337 336 337 336 335 337 339 340 340 340 339 339 339 339 338 338 338 338 338 337 337 337 338 338 338 338 337 337 337 337 336 336 335 335 336 335 334 334 334 334 333 333 333 333 333 333 334 333 334 334 333 333 333 333 333 333 333 333 331 330
315 314 314 315 312 312 314 315 316 315 315 318 314 312 316 316 315 315 316 317 315 331 341 341 343 344 344 351 351 351 349 342 339 336 335 336 336 337 338 338 335 335 337 338 340 340 339 339 338 338 339 338 338 338 338 338 338 337 338 339 338 338 338 337 337 337 337 336 336 335 334 335 334 334 334 334 333 333 333 332 331 332 334 334 334 334 333 334 334 334 334 333 333 333 333 331 329
315 313 314 315 312 312 314 315 316 315 315 316 315 312 314 315 315 315 316 315 317 335 341 339 340 342 345 351 349 349 348 339 335 335 334 336 336 336 338 338 335 334 337 338 340 340 339 339 338 338 338 338 338 337 337 338 338 338 339 339 338 337 337 336 336 337 337 337 337 335 334 334 334 334 334 333 332 332 332 329 327 331 335 334 334 334 334 335 335 334 334 332 331 332 332 331 330
315 314 314 315 311 311 313 315 315 315 315 315 315 314 315 315 315 314 317 315 318 334 341 339 340 342 347 350 346 348 350 345 340 337 334 336 336 335 337 338 335 334 336 339 341 340 339 339 338 339 338 339 338 337 337 338 338 338 339 338 338 337 337 336 336 336 337 337 337 336 334 334 334 334 334 333 330 330 331 328 328 333 335 334 334 335 335 335 334 333 334 332 330 330 332 332 330
317 315 314 315 312 311 312 314 315 315 315 315 315 315 315 316 316 315 317 318 318 331 341 342 342 343 346 347 345 346 349 352 349 339 335 336 336 336 337 337 335 335 336 339 341 340 340 339 339 339 338 338 339 338 338 338 338 337 338 337 336 336 336 336 336 336 337 337 337 336 334 334 334 334 334 332 329 330 331 329 331 334 334 334 334 334 335 335 333 332 334 333 331 331 332 332 330
316 316 314 314 313 312 312 313 314 315 316 316 315 316 317 317 316 316 317 320 318 328 341 343 341 341 342 344 345 345 345 349 346 338 336 336 336 336 337 337 335 336 338 338 339 341 341 340 339 338 338 338 339 339 338 338 338 337 337 336 335 336 335 335 335 336 337 336 336 335 334 335 335 334 333 332 331 332 332 331 333 333 333 334 333 333 334 335 333 332 333 333 331 330 331 331 330
314 315 314 313 313 313 314 315 315 316 316 317 317 315 316 317 317 319 318 321 320 325 337 341 340 339 339 342 346 345 345 345 341 338 337 336 336 335 337 337 334 336 339 338 339 341 341 341 340 339 339 338 339 340 338 337 337 337 336 335 335 335 335 335 335 336 337 336 336 335 335 335 334 331 331 331 331 333 333 333 334 333 333 334 332 334 334 334 333 332 332 333 332 331 331 331 330
314 314 314 314 313 314 316 317 315 317 317 317 319 318 317 319 320 321 319 319 320 321 328 334 337 337 339 344 346 345 346 344 339 338 336 334 335 335 336 336 334 335 338 339 339 340 341 340 339 340 339 339 339 339 338 336 335 336 335 334 334 335 335 334 335 336 336 336 336 336 335 334 331 328 330 331 331 333 333 333 334 332 334 334 333 334 334 334 332 331 332 333 333 332 331 331 330
315 314 314 315 314 314 317 317 315 319 321 318 320 320 319 321 321 321 320 319 320 321 323 329 334 337 340 344 344 344 345 343 339 339 335 332 334 336 336 336 334 335 337 338 337 338 341 340 339 340 340 340 339 339 338 336 335 336 335 335 334 334 334 334 334 335 335 335 336 335 334 332 328 327 329 330 330 333 332 332 332 332 334 335 334 334 334 333 332 332 332 332 333 333 331 330 330
318 315 313 315 317 316 318 319 316 318 321 320 321 320 321 326 324 322 322 320 320 322 324 328 333 338 341 340 339 341 344 343 342 342 335 331 334 336 336 336 335 335 337 337 335 337 340 340 340 340 340 340 339 338 338 337 335 335 334 334 334 333 333 333 333 334 334 335 335 334 332 330 328 327 329 331 332 333 333 332 332 333 334 334 333 334 334 333 332 332 332 333 333 332 331 330 330
321 318 314 315 317 315 317 320 317 317 320 322 323 322 324 327 324 322 322 321 320 319 321 324 327 333 338 338 336 338 342 344 343 342 336 332 332 334 335 334 333 333 334 335 335 338 340 340 341 340 340 340 339 339 338 337 336 335 334 334 334 333 333 333 333 333 334 334 334 334 332 330 330 330 331 332 333 334 334 333 332 333 333 332 333 334 333 333 332 332 332 333 333 332 331 330 331
324 322 318 317 317 315 315 317 317 320 323 325 322 318 324 326 322 323 322 321 321 318 319 322 320 325 331 335 336 336 340 341 341 342 340 334 331 333 334 333 332 331 333 335 337 340 340 339 340 340 339 339 338 338 337 337 337 335 334 334 334 333 333 334 334 333 333 334 334 333 333 332 331 331 332 333 333 333 334 333 334 333 330 330 333 333 333 332 332 333 332 333 333 332 331 330 332
321 324 320 318 317 316 315 314 316 319 321 325 319 315 324 329 320 321 321 319 320 319 319 319 319 322 323 328 334 335 338 338 338 342 342 337 333 333 333 332 331 331 333 336 339 340 340 339 339 338 339 338 338 338 337 337 336 335 334 334 333 333 333 334 334 333 333 333 333 333 333 333 331 331 331 333 333 332 332 332 332 331 329 331 333 333 333 332 332 332 332 332 332 332 331 331 332
317 321 319 317 317 315 315 313 313 313 316 324 320 314 321 326 320 322 322 319 319 319 320 319 317 318 320 323 327 332 337 338 337 338 338 337 335 334 333 331 330 332 334 337 338 339 339 339 339 338 338 339 338 338 338 337 335 334 335 335 334 334 334 334 333 333 333 333 333 333 333 333 331 331 332 334 334 333 331 330 330 330 330 332 333 333 333 332 331 331 331 332 332 332 332 330 331
317 319 317 316 315 314 315 313 312 314 316 322 323 315 313 317 322 324 320 319 320 319 320 320 318 319 325 329 330 334 337 336 337 338 337 338 338 335 334 334 332 335 338 336 335 337 338 339 339 338 338 338 338 338 338 336 335 334 335 335 334 334 333 333 333 333 333 333 333 333 333 332 331 331 333 334 334 333 331 330 330 331 332 332 332 333 333 331 330 331 331 331 331 332 332 331 331
317 318 315 315 314 315 317 315 315 317 317 317 321 317 311 316 326 326 319 318 318 320 323 323 324 325 329 334 338 338 336 337 340 342 344 343 339 337 337 338 336 337 338 335 334 336 337 338 339 339 339 338 338 338 337 336 335 335 335 335 334 333 333 332 333 333 333 333 333 333 333 332 332 332 332 333 333 333 332 331 332 333 332 332 332 333 332 331 331 331 331 331 331 331 332 331 331
316 316 316 315 314 316 319 319 316 316 318 317 318 316 312 316 325 324 319 317 318 323 326 327 329 328 330 335 339 338 338 343 346 348 349 345 341 340 340 339 336 334 334 334 334 335 336 338 338 338 338 338 338 337 337 336 335 335 335 334 334 333 333 333 333 332 333 332 332 332 332 332 333 333 333 333 333 332 332 331 332 334 332 331 332 332 332 331 331 330 331 331 331 331 332 332 330
315 315 315 315 317 320 321 320 315 313 319 320 317 316 314 315 320 319 318 320 322 326 328 331 332 331 331 334 336 338 338 341 347 350 348 342 341 342 342 336 330 329 329 331 333 333 335 336 336 337 338 337 338 337 336 336 336 335 335 335 334 334 333 333 333 332 332 332 332 332 332 332 332 333 334 335 334 333 333 332 333 333 332 331 331 331 331 331 330 330 331 331 332 332 331 331 330
316 316 315 315 319 321 318 316 314 314 320 321 314 313 314 313 317 320 322 326 328 330 332 334 334 333 332 333 334 336 336 338 346 351 347 344 344 343 341 336 329 328 329 329 332 332 333 334 334 337 338 337 338 337 336 337 336 335 335 335 334 334 333 332 332 332 332 332 331 331 331 332 332 333 334 334 334 334 333 333 333 332 331 330 329 329 330 331 330 330 330 330 332 332 331 331 331
316 316 315 314 316 318 316 316 316 317 321 320 314 312 313 314 319 323 327 331 332 332 333 333 334 334 334 333 333 334 334 335 339 343 343 343 342 337 336 337 333 330 329 328 329 331 333 334 335 338 337 336 337 336 336 337 336 336 335 335 335 334 333 332 331 331 331 332 332 331 331 333 333 333 334 334 334 334 333 334 334 332 332 331 328 328 330 330 330 330 330 331 332 332 332 332 332
315 315 316 317 317 316 318 318 318 318 318 317 316 315 315 318 323 327 331 332 332 332 330 330 331 331 332 332 332 332 332 332 333 335 335 334 333 331 332 333 331 329 329 328 328 330 331 331 334 338 338 336 336 336 336 336 336 336 336 335 335 334 333 332 332 331 331 332 332 331 332 333 333 333 333 334 333 333 334 334 334 333 333 332 329 329 330 330 331 330 330 332 333 332 332 331 332
315 315 317 320 318 316 317 317 317 319 319 318 319 317 318 326 331 330 331 332 332 331 329 328 328 328 329 329 330 332 331 330 330 331 331 330 328 329 329 328 327 326 327 328 328 329 331 329 329 332 336 337 336 335 336 337 336 336 336 335 334 333 333 332 332 332 332 332 332 331 332 332 333 333 333 333 332 332 333 334 334 333 334 333 330 330 330 330 331 332 332 333 333 331 331 331 331
319 317 314 317 319 318 317 317 318 318 321 322 321 320 322 331 335 331 329 331 331 330 328 327 327 327 327 328 329 330 330 329 329 328 329 328 326 327 328 327 326 325 324 325 326 329 330 329 329 328 330 334 336 336 336 337 336 336 337 335 332 333 334 333 332 333 332 332 332 332 332 333 333 333 332 332 331 331 331 332 332 333 333 333 331 331 330 330 330 331 332 332 332 332 331 330 330
320 316 313 316 320 317 315 320 321 316 319 322 318 318 323 327 330 330 329 330 330 329 328 327 327 327 327 328 328 328 328 328 328 328 328 327 326 327 327 327 327 326 325 324 325 328 328 328 329 328 328 330 333 335 336 336 336 337 337 334 332 333 334 332 333 332 332 332 332 333 333 332 332 331 331 331 331 330 330 331 331 332 332 332 332 331 330 330 330 330 330 330 331 331 330 330 330
315 313 316 318 316 314 315 319 320 316 320 321 316 321 330 331 331 331 330 331 331 329 328 327 328 328 327 327 327 326 326 326 326 327 328 327 326 326 326 327 327 327 327 327 327 327 327 326 327 327 328 329 329 330 333 335 336 337 335 333 332 333 333 333 333 333 332 332 332 332 332 331 331 330 330 330 330 330 329 330 331 331 331 331 332 331 330 330 330 329 329 329 330 331 330 329 329
315 314 318 320 318 318 318 316 317 319 321 319 318 328 335 334 332 332 331 332 331 329 328 328 328 328 327 326 326 326 326 325 325 326 326 326 325 325 325 326 326 326 327 328 328 327 327 327 327 326 327 328 327 327 329 331 334 335 334 331 332 333 333 333 333 332 332 332 332 331 331 331 330 330 329 329 329 328 328 329 330 330 330 330 330 330 330 330 330 330 330 330 330 330 330 328 328
316 314 315 319 317 317 320 319 318 321 323 320 321 330 334 331 330 331 331 331 331 329 327 327 327 327 326 326 325 325 325 324 325 324 323 323 322 322 322 322 324 325 326 327 327 328 328 327 327 327 328 329 329 328 329 329 332 335 333 331 332 333 333 332 332 332 332 331 331 331 330 330 329 329 328 328 327 327 328 329 329 329 329 329 329 330 330 329 329 329 330 330 330 329 330 329 328
317 316 314 317 320 320 319 319 317 316 321 323 325 331 332 330 330 330 331 331 330 328 326 325 325 324 324 324 323 322 323 322 323 322 321 320 319 318 318 318 319 321 324 326 326 326 327 327 327 327 328 328 328 328 329 328 330 334 334 332 332 332 332 332 331 331 331 331 331 330 330 329 328 328 328 327 327 327 326 327 328 329 329 329 328 329 329 328 328 329 330 330 329 329 329 329 328
319 320 318 320 327 327 321 320 322 321 320 321 326 333 332 329 328 329 329 329 327 326 325 323 322 322 321 321 321 320 320 320 320 319 317 316 316 315 315 316 316 317 319 323 325 325 326 326 327 327 327 327 327 328 329 328 328 331 334 333 331 331 331 331 332 331 331 331 330 330 328 328 327 327 327 327 326 326 326 326 327 328 328 329 329 328 329 328 328 329 330 330 329 329 329 329 329
Wind_Speed
5 3 2 2 4 5 5 2 1 2 1 3 5 3 6 8 7 4 5 5 6 4 5 5 5 4 4 8 11 12 9 4 1 2 2 7 19 26 26 26 26 28 27 23 21 21 22 22 21 20 19 20 20 21 22 21 21 21 22 22 21 21 21 21 20 19 19 19 18 18 18 18 18 18 18 18 18 20 19 18 18 18 18 18 18 18 18 17 16 15 15 15 13 15 18 16 14
5 3 5 6 7 3 2 2 1 2 1 4 5 4 9 6 1 3 7 8 5 2 4 5 5 5 7 12 11 11 10 7 6 5 6 18 25 24 24 22 24 29 27 23 21 21 22 22 21 20 20 20 20 21 22 22 21 21 22 22 21 21 21 20 19 19 19 18 18 18 18 18 18 17 18 16 18 20 19 17 17 17 17 17 17 17 17 16 16 15 15 13 13 16 18 16 16
5 4 6 7 6 4 2 0 1 2 2 4 5 5 6 2 3 6 6 8 5 4 5 5 6 4 8 12 8 7 5 5 10 7 8 18 18 19 25 20 22 26 25 23 20 20 22 21 21 21 20 20 20 21 22 23 22 21 22 21 21 21 21 20 19 18 18 18 17 18 18 18 17 17 17 16 19 21 17 16 17 16 16 16 16 15 15 16 15 14 14 12 13 17 18 17 19
6 5 6 4 2 2 1 1 3 2 3 4 5 4 1 3 3 6 5 5 4 3 3 4 6 5 10 12 8 8 7 5 9 8 6 12 15 23 27 20 20 22 22 21 19 20 22 22 21 21 21 21 20 20 22 23 22 22 22 21 20 20 20 19 18 18 18 18 18 18 18 17 17 17 17 17 21 19 16 16 16 15 15 14 14 14 14 14 14 13 12 10 12 17 17 17 19
7 5 7 4 1 1 0 1 2 3 5 4 3 5 4 5 5 4 2 1 3 4 3 2 3 4 9 8 4 5 6 6 8 11 10 14 22 27 25 21 20 20 19 18 18 19 21 21 21 21 21 21 20 20 22 23 23 22 21 21 21 20 19 19 18 18 18 18 18 17 17 17 16 16 17 17 20 19 16 15 16 15 14 13 12 12 13 12 12 11 11 10 11 15 17 18 18
6 6 7 5 2 1 0 3 3 4 7 5 4 4 3 6 5 4 4 2 2 6 4 2 5 6 7 6 5 4 6 8 7 12 15 19 23 24 23 20 21 22 19 17 17 19 21 21 21 21 21 20 20 20 22 23 23 22 21 22 21 20 18 18 17 17 18 17 16 16 17 17 16 17 17 17 19 18 15 15 15 14 13 13 12 11 11 11 10 10 11 10 10 13 16 18 17
4 4 3 3 2 2 0 4 4 5 8 7 5 2 3 5 3 4 6 4 3 2 4 5 11 10 6 4 4 8 11 14 10 13 18 22 23 21 21 19 23 24 19 17 16 18 21 20 21 21 20 20 20 20 21 23 23 21 22 23 21 19 18 18 17 17 17 16 15 16 17 18 17 17 17 17 17 16 14 15 15 13 12 11 11 11 10 10 10 10 10 10 10 12 15 17 16
6 3 0 1 1 1 2 5 5 6 7 4 3 3 4 4 3 4 5 3 2 1 4 6 13 12 6 6 4 7 15 18 17 20 22 23 24 22 21 22 25 24 20 17 16 19 20 20 21 20 20 20 20 21 21 22 21 21 22 22 19 18 18 17 16 17 17 16 15 16 17 18 17 17 16 16 16 15 14 14 14 12 11 10 11 10 9 9 9 9 8 9 10 12 15 16 16
7 4 1 1 2 3 3 5 6 8 8 3 3 3 4 3 2 2 3 4 3 2 5 6 11 11 6 11 8 5 13 20 24 24 22 22 21 20 22 25 27 25 21 17 16 20 20 19 20 20 20 20 20 22 22 21 20 20 20 20 18 17 17 16 16 17 17 16 15 15 17 17 17 16 16 17 16 14 14 13 13 11 11 11 10 9 8 8 7 7 7 9 11 13 15 16 16
3 4 1 1 2 4 5 5 6 7 6 4 4 5 3 1 2 2 1 4 5 4 1 8 13 12 9 10 6 5 13 22 25 22 21 21 18 18 22 25 26 24 21 17 18 21 20 19 20 20 20 20 21 22 22 21 20 20 19 18 17 16 15 14 16 17 18 16 15 17 17 17 18 17 16 16 15 14 13 12 12 12 12 11 9 8 7 6 6 6 7 10 13 14 16 17 16
1 3 2 2 3 4 5 5 7 7 5 5 4 6 1 1 3 2 2 4 5 6 6 12 12 11 11 6 3 10 20 24 24 22 22 21 18 20 23 24 24 22 20 18 19 21 20 19 19 20 20 21 22 22 22 21 20 20 19 17 16 15 14 14 16 17 18 16 16 17 17 17 18 18 17 16 14 14 12 11 12 12 11 10 8 7 7 6 6 6 8 10 13 14 16 17 15
2 3 2 3 4 4 5 5 7 6 2 3 3 3 2 3 4 3 6 6 4 7 9 9 8 9 9 3 2 9 17 19 24 25 23 22 21 22 23 23 22 21 19 19 21 22 20 19 19 19 20 21 22 21 22 21 20 20 18 17 16 15 15 15 17 18 18 17 17 17 16 16 17 18 17 15 14 13 12 12 13 12 10 9 7 7 7 7 6 7 9 11 13 14 16 15 14
2 4 2 4 4 4 5 6 7 4 2 1 1 2 0 5 5 5 5 7 6 7 8 10 9 7 6 3 3 5 8 15 25 26 24 23 24 24 23 23 22 21 20 19 21 22 21 21 20 20 20 21 21 21 21 20 20 19 18 17 17 16 17 17 17 18 18 18 17 16 15 14 15 16 16 14 13 12 12 13 12 11 10 8 7 7 7 7 7 8 9 11 13 15 16 15 14
4 3 2 4 4 5 4 6 6 2 1 3 1 2 2 3 4 4 1 3 8 6 6 10 10 10 6 2 3 3 6 17 25 26 24 24 26 25 24 23 22 22 21 21 22 23 22 21 20 20 20 20 20 20 20 19 19 18 18 17 16 18 18 17 16 17 18 18 17 15 14 12 13 15 15 14 13 12 12 12 11 11 9 7 6 7 7 7 7 9 10 11 12 14 15 14 14
5 2 3 3 4 5 4 6 6 2 2 3 1 1 2 3 3 4 2 4 7 4 7 7 5 6 6 7 5 6 12 21 25 24 22 24 27 26 25 23 22 23 22 22 23 23 22 20 20 20 20 20 19 19 19 19 18 18 18 16 16 18 17 16 16 17 17 18 17 15 14 13 13 13 15 14 13 12 11 11 10 9 7 5 5 6 7 7 7 9 10 11 12 14 15 14 14
5 3 2 2 4 5 4 5 5 2 1 2 3 2 2 3 2 3 1 4 6 4 7 5 2 4 9 9 7 13 20 25 25 22 21 24 26 25 25 23 22 23 22 24 24 22 22 20 20 20 19 18 18 18 19 18 18 17 16 16 17 17 16 15 16 16 16 17 17 15 14 14 13 13 14 14 13 11 10 10 9 8 6 5 4 6 8 7 7 9 11 12 14 15 16 15 14
4 3 3 4 4 4 4 3 2 2 1 5 6 6 3 3 4 1 1 4 8 7 8 4 2 4 6 7 14 22 25 25 23 20 19 22 24 23 24 24 24 24 23 24 24 22 21 20 20 19 18 17 17 17 18 18 17 16 16 16 16 16 15 14 15 15 16 16 15 15 15 14 13 13 13 13 13 11 10 9 8 7 6 5 4 6 8 8 8 9 11 14 16 17 17 16 15
3 3 4 5 4 4 5 1 2 2 0 3 3 5 4 4 5 1 1 5 10 9 8 5 4 5 6 13 23 26 24 25 24 20 18 18 19 18 20 22 23 24 24 25 24 23 21 20 21 20 18 17 16 16 18 18 16 16 16 16 16 14 14 14 14 14 14 14 15 16 15 15 14 13 13 14 14 12 11 10 9 7 6 6 5 7 9 8 8 9 11 13 16 17 17 16 14
4 3 3 5 5 6 7 1 4 2 3 3 3 4 3 3 5 3 2 5 9 8 5 5 6 7 9 15 22 24 23 21 14 11 13 14 16 16 16 18 23 24 25 27 25 23 21 21 23 22 20 18 15 17 18 18 17 17 17 17 15 14 14 14 14 13 13 13 16 17 17 16 15 14 13 13 14 13 12 10 9 8 8 8 7 8 9 9 8 9 11 12 15 16 15 15 13
5 4 4 5 5 6 9 2 6 5 6 6 5 5 5 4 5 3 4 5 7 7 3 4 4 6 8 10 15 19 16 13 12 7 3 6 10 14 16 16 22 26 26 28 28 26 23 23 26 25 25 23 20 19 19 18 17 17 18 17 15 14 14 13 13 12 13 14 16 17 17 17 16 15 14 12 13 13 12 10 9 8 8 10 10 9 10 10 9 9 10 12 14 14 13 12 11
4 5 5 6 5 8 6 4 7 6 7 5 5 6 7 4 2 2 5 4 4 4 6 7 8 9 9 9 10 12 17 19 9 9 7 4 3 6 15 19 22 27 28 30 31 29 27 28 28 28 29 29 26 24 22 20 18 17 17 16 15 15 14 14 13 12 14 15 16 16 16 18 17 17 16 14 14 13 12 11 10 9 8 11 12 10 10 11 10 9 9 11 13 12 12 10 7
3 6 8 8 8 7 3 4 6 5 5 4 4 4 6 3 2 3 5 3 3 5 8 9 11 11 10 9 10 14 15 10 11 12 7 8 10 6 8 13 21 27 31 31 29 26 28 31 29 28 30 30 30 30 28 26 21 19 19 17 16 16 15 15 15 15 15 16 17 16 15 17 18 19 18 15 15 14 13 11 10 8 7 10 12 11 11 11 10 9 8 9 11 11 9 7 5
3 5 6 8 8 7 5 2 5 6 5 3 2 4 4 6 5 4 5 5 5 10 10 10 10 11 11 10 12 13 10 11 10 11 11 11 14 9 2 6 19 26 27 25 22 23 25 29 29 28 29 29 29 29 30 30 26 22 20 19 19 18 18 17 18 17 17 18 17 16 15 16 18 19 18 16 16 14 12 10 8 7 7 11 12 11 12 12 10 9 8 8 9 8 6 6 8
6 6 6 7 8 7 6 1 4 5 3 2 2 4 6 5 4 5 5 5 6 11 9 11 10 10 11 11 12 11 11 11 9 14 16 11 12 9 9 12 17 21 25 24 22 25 25 27 30 30 29 29 30 28 29 31 28 26 23 22 22 21 20 19 19 19 18 18 17 16 15 16 18 18 18 17 16 14 12 10 9 8 8 10 12 11 11 12 12 10 8 8 7 6 5 6 8
7 7 7 7 7 6 6 5 1 2 3 3 3 4 6 5 4 5 6 7 2 11 9 10 12 10 9 11 11 10 9 9 9 12 11 11 10 6 17 17 14 15 22 26 25 26 28 29 31 31 29 29 32 31 30 30 29 29 28 26 25 23 22 20 20 20 19 19 18 17 16 17 19 18 18 17 17 16 14 12 9 8 7 8 11 11 9 10 12 11 10 9 8 7 9 8 7
7 7 7 7 7 6 6 5 3 2 3 3 3 5 7 7 5 5 8 8 2 13 11 10 12 10 8 9 10 8 8 7 6 5 1 1 3 10 17 17 12 10 17 26 29 30 30 29 30 31 29 29 34 35 33 31 29 30 30 28 26 24 23 22 21 20 19 19 19 18 16 17 19 19 19 18 17 17 15 14 11 10 9 8 8 8 9 9 9 11 11 10 10 11 12 11 9
4 4 6 8 7 6 4 4 3 4 3 3 3 5 6 6 4 4 8 9 5 14 12 10 12 10 9 9 8 7 8 7 7 6 6 6 12 11 14 16 13 12 14 25 30 32 31 29 30 30 29 30 36 36 34 31 29 30 30 29 28 25 25 23 21 21 19 19 19 19 18 18 19 20 20 19 18 17 16 14 13 13 11 8 7 6 8 8 7 9 9 9 11 14 13 12 11
3 1 4 6 5 6 5 7 5 1 2 4 4 5 6 5 4 6 7 9 5 13 12 11 11 8 8 8 8 6 6 10 12 10 8 7 6 7 15 17 18 17 16 26 30 31 31 29 30 30 28 30 35 35 33 32 29 28 28 27 27 24 25 24 21 20 20 19 19 19 19 19 20 20 20 19 18 17 15 14 13 11 9 7 7 6 6 7 8 8 8 7 8 11 12 12 9
6 4 4 4 4 6 7 7 6 2 2 5 4 4 6 5 8 10 7 8 5 12 13 12 11 8 8 8 7 6 7 11 13 12 13 14 13 18 21 18 21 21 19 25 30 31 30 29 30 30 27 29 33 33 31 31 28 26 26 25 24 23 23 23 21 20 20 20 20 20 20 20 20 20 19 19 17 16 15 13 12 9 7 7 8 8 6 7 10 9 7 5 4 7 11 12 11
5 5 3 3 4 6 9 8 7 7 6 7 5 2 6 6 10 11 8 10 7 11 13 11 9 6 7 8 7 6 6 9 11 15 19 18 21 26 24 17 18 19 18 22 27 29 28 27 29 29 27 26 29 31 29 28 26 25 26 24 22 21 20 21 21 19 19 20 20 20 21 20 20 21 20 18 16 16 15 13 12 10 8 9 9 9 7 7 9 7 5 4 7 11 15 15 12
3 3 2 2 2 7 9 7 9 9 7 7 7 3 7 7 10 11 8 11 7 11 14 10 8 6 6 7 7 6 5 6 10 17 20 22 27 27 20 17 16 14 17 20 23 25 26 26 26 27 26 23 23 27 27 26 25 25 25 24 22 21 20 20 20 19 19 20 20 21 21 21 21 21 19 17 16 15 15 13 12 11 8 10 10 9 8 7 7 5 3 5 11 13 12 14 13
2 1 3 2 4 8 8 7 11 11 6 9 9 2 7 8 11 11 9 15 9 12 12 9 9 7 6 6 6 5 3 4 7 12 15 22 27 25 17 17 17 11 15 18 22 23 24 24 25 25 25 23 20 22 26 25 24 23 23 23 22 22 21 20 20 19 20 20 20 22 21 21 22 21 18 17 17 14 12 11 12 11 9 11 11 10 9 5 6 4 2 7 13 9 9 13 14
2 4 4 4 6 8 7 7 14 14 7 8 8 2 6 7 8 10 10 13 11 13 12 11 10 8 7 6 5 5 3 3 4 8 12 22 26 23 14 14 15 11 13 15 22 23 22 23 23 24 25 23 19 22 26 25 23 22 22 22 21 22 21 21 20 19 21 21 21 23 22 22 22 20 18 18 16 13 12 12 13 12 11 13 12 11 9 5 8 7 7 10 9 9 12 16 16
3 4 5 5 7 7 5 4 11 13 6 7 8 4 7 9 9 10 6 6 11 11 13 12 10 9 8 7 6 6 5 5 5 7 12 23 26 21 12 10 13 13 11 14 19 21 22 22 22 23 24 23 21 22 25 23 21 19 20 20 20 20 20 20 20 19 21 22 22 23 23 23 22 20 18 18 16 15 14 14 15 13 12 14 13 11 9 6 7 8 10 10 8 12 17 16 17
5 5 5 6 8 7 5 3 7 9 7 7 8 6 9 10 10 9 3 8 9 9 12 11 10 11 9 8 8 7 7 7 7 8 17 27 27 20 13 12 13 15 15 15 16 19 21 21 21 21 21 22 21 21 23 23 19 18 19 19 17 18 19 21 21 20 21 22 22 23 24 23 22 20 18 17 17 16 15 14 15 14 12 13 12 10 8 6 7 9 9 9 9 14 17 18 20
9 7 5 6 6 6 6 6 9 9 8 6 8 8 8 9 8 8 4 3 5 8 11 10 9 10 9 8 8 8 9 8 6 13 26 30 26 20 17 17 17 17 17 16 14 16 19 20 21 21 21 22 22 22 24 23 21 19 18 18 18 18 19 21 22 21 22 23 23 23 24 23 22 20 18 18 17 15 15 14 13 13 12 12 12 10 9 7 9 11 11 12 14 16 17 20 20
11 8 3 4 4 6 6 7 11 8 7 5 6 6 5 5 7 8 5 3 1 5 6 8 9 8 8 8 8 8 8 6 10 21 30 30 26 26 24 21 19 18 16 14 13 13 17 20 21 21 22 24 25 25 26 25 23 22 19 18 19 19 18 19 22 23 23 22 22 23 23 23 21 20 19 19 18 15 14 13 13 12 11 12 11 10 9 8 9 10 12 15 17 18 19 19 19
10 7 4 5 3 6 8 7 11 5 6 4 3 4 3 6 6 9 7 4 3 5 5 6 10 9 7 8 9 8 6 6 10 14 22 29 29 30 30 26 24 21 19 14 11 11 16 19 20 22 23 25 26 27 28 26 23 23 22 20 21 20 19 19 21 23 23 22 22 22 23 23 22 21 20 19 18 16 15 14 13 12 13 13 11 10 10 9 10 10 13 16 17 19 20 21 23
6 5 4 5 3 5 8 2 6 3 3 4 4 5 3 6 5 8 9 7 6 6 8 8 10 11 9 9 10 8 7 6 8 8 13 24 29 31 32 29 27 24 23 14 8 14 20 20 20 21 23 24 26 27 26 25 24 24 22 20 20 20 18 17 19 22 22 22 22 21 22 22 22 21 20 19 18 16 16 15 14 14 14 12 11 12 11 10 11 12 14 17 17 18 18 22 23
2 2 2 4 3 4 6 2 1 2 2 4 6 5 2 5 6 7 8 7 7 6 5 6 8 12 13 13 12 11 10 9 8 8 9 16 23 27 29 28 25 23 23 17 15 21 24 24 23 21 21 22 23 25 24 24 25 24 21 18 18 18 16 14 16 20 22 22 22 22 21 22 21 20 19 18 16 14 14 14 15 15 14 11 11 13 12 11 11 13 16 17 18 18 18 21 18
1 1 1 3 5 5 6 6 3 3 3 2 7 4 3 4 5 6 7 7 6 6 5 5 5 8 11 12 12 12 14 13 11 10 9 11 14 18 23 25 25 24 25 24 26 28 27 26 26 23 20 19 19 21 22 23 25 25 22 18 17 15 13 14 15 18 21 22 22 22 21 22 21 19 18 17 16 14 13 14 16 16 14 12 13 13 13 12 12 14 17 17 18 19 20 21 17
3 1 3 4 7 8 9 10 7 5 5 3 5 3 5 5 6 7 7 7 7 7 6 8 9 6 8 10 12 13 13 13 12 12 11 9 13 17 21 25 26 25 28 31 34 32 29 27 28 27 23 20 19 20 21 23 26 28 27 23 20 18 16 17 18 18 22 24 23 23 22 22 21 19 18 16 15 15 13 14 16 16 14 14 13 12 12 13 13 14 17 17 17 18 20 22 18
1 3 4 6 8 8 8 10 6 2 3 4 3 3 4 5 4 6 5 6 9 7 6 10 11 6 3 4 7 11 11 11 10 10 10 10 15 18 21 24 26 28 30 33 36 35 31 29 27 27 27 26 23 21 23 25 28 30 29 27 25 24 22 20 20 21 23 24 23 24 24 22 22 20 18 17 16 15 13 13 14 14 14 14 14 12 12 12 12 14 17 18 17 17 19 23 22
3 5 7 8 9 9 10 8 4 2 3 5 3 2 1 4 5 6 6 6 8 6 7 10 6 2 6 8 2 8 10 9 7 5 6 6 10 15 21 24 28 32 33 33 34 33 31 31 28 27 29 31 27 25 25 26 28 29 27 26 26 26 25 23 22 23 23 23 22 24 24 22 21 20 19 18 16 14 12 12 13 14 14 14 14 13 11 10 11 14 16 16 17 17 18 22 24
4 6 9 9 7 7 5 2 1 2 3 5 6 3 1 4 5 7 7 8 8 5 6 9 11 11 11 10 5 4 5 4 4 6 5 6 9 10 15 20 25 31 32 30 31 31 32 32 30 29 29 32 32 28 27 27 27 28 27 26 25 25 25 24 24 24 23 23 23 23 23 22 20 19 17 17 15 14 12 13 15 14 14 14 12 11 10 10 11 14 16 16 17 18 18 20 25
6 8 9 8 6 3 3 4 3 4 4 4 6 2 1 4 5 5 5 6 6 3 8 12 14 13 12 11 8 5 7 8 8 8 6 8 13 13 12 14 19 24 25 26 28 29 31 31 32 31 25 27 32 30 28 28 26 26 26 26 26 24 25 25 24 24 24 22 22 23 22 21 19 17 15 15 14 13 12 12 14 14 14 13 12 11 10 11 11 13 15 16 17 19 19 20 25
7 7 5 4 5 1 5 3 3 4 3 5 6 3 2 3 5 5 3 3 2 6 8 10 13 14 13 11 9 9 8 8 7 7 5 5 13 18 17 17 15 15 17 19 22 25 28 28 28 28 23 22 28 30 29 28 26 26 25 26 27 26 26 27 26 26 24 23 24 24 22 21 20 18 16 13 12 12 11 10 12 12 13 13 12 11 11 13 13 13 13 14 16 18 21 21 22
3 2 1 2 4 3 4 4 3 1 4 5 6 6 3 2 5 4 5 9 10 10 9 11 13 12 11 10 9 9 8 7 6 5 5 5 7 12 15 20 18 14 10 6 8 13 19 23 24 24 24 25 27 30 30 28 27 26 26 27 28 28 28 29 29 28 27 26 25 23 22 21 21 19 17 15 13 13 12 11 11 11 12 14 15 14 14 15 15 13 12 13 14 17 21 22 21
4 2 1 2 2 3 2 1 1 3 5 6 6 5 4 2 2 5 9 11 12 11 10 12 13 12 12 11 11 10 10 9 8 6 6 7 6 7 7 11 14 12 10 7 5 6 8 14 20 23 25 27 29 31 29 27 28 27 26 29 29 29 29 30 30 29 28 27 25 23 22 21 21 19 17 15 14 14 14 14 13 12 12 13 17 18 16 16 16 15 15 15 15 17 19 21 21
5 4 3 4 2 1 1 3 3 4 5 6 4 1 2 2 3 6 10 11 11 12 11 12 13 12 12 12 12 11 11 11 9 8 8 7 7 8 9 10 12 10 6 11 14 12 7 8 12 18 25 26 28 31 29 27 28 27 27 29 30 29 29 29 29 29 28 27 25 23 22 22 21 19 18 16 14 14 14 14 13 13 12 11 15 17 15 15 18 19 19 18 18 18 19 20 21
5 6 5 5 4 3 3 3 3 4 3 2 0 1 1 2 1 3 9 11 10 11 12 13 13 12 11 11 12 11 11 10 8 8 8 7 9 11 12 12 11 7 2 4 9 13 14 12 11 11 17 26 28 28 28 28 28 28 29 30 30 30 29 28 27 26 26 26 25 23 22 23 21 19 19 18 16 15 13 12 11 12 12 11 14 15 14 14 16 19 20 20 18 17 18 19 20
3 4 5 4 4 4 3 4 5 4 2 2 1 1 2 5 3 3 9 10 11 12 12 14 13 12 11 12 12 11 9 9 8 8 8 7 10 12 12 12 9 4 3 5 8 13 20 24 16 14 13 17 25 28 28 28 28 29 30 31 32 31 28 27 26 25 25 25 24 23 22 22 21 20 18 17 16 14 12 11 11 11 12 12 14 16 15 14 15 17 19 20 18 17 17 18 18
2 1 3 6 7 6 2 4 4 3 4 1 2 2 2 1 2 8 11 10 13 13 13 14 12 11 13 11 11 11 10 10 9 8 7 8 10 12 12 10 8 3 5 10 12 12 14 18 16 12 14 14 14 22 27 28 28 30 31 32 33 31 28 28 27 25 25 24 23 23 22 22 21 19 18 16 15 13 11 11 12 12 13 12 14 16 16 15 15 16 17 18 18 17 16 17 18
2 2 3 4 5 5 2 1 2 2 2 3 3 5 2 2 1 8 12 11 12 13 13 13 12 12 12 10 10 10 11 11 9 8 8 9 12 15 15 13 12 7 2 4 8 9 8 9 8 10 15 15 11 16 23 26 29 30 32 33 33 32 30 28 27 26 25 25 24 23 22 22 21 20 18 16 15 13 10 11 14 13 12 11 13 16 17 16 16 15 16 16 17 17 16 16 18
6 4 2 3 3 4 1 1 2 1 1 2 1 6 4 3 1 5 9 10 10 11 12 13 13 12 11 9 10 10 10 10 9 9 9 9 13 16 17 16 15 12 8 4 2 5 3 3 6 5 10 13 13 18 23 23 27 29 31 33 33 33 31 28 27 28 28 26 25 24 23 22 21 20 19 17 15 14 12 14 16 15 13 12 13 16 18 17 17 18 17 17 17 17 16 17 19
5 5 3 0 4 4 2 2 3 3 3 2 1 4 3 1 2 3 6 7 7 10 11 11 12 11 10 9 9 8 9 8 8 9 9 10 15 20 23 24 23 18 12 8 3 1 4 2 1 3 5 9 11 19 25 22 23 28 30 31 33 32 30 29 29 30 30 28 27 26 23 21 19 18 18 17 16 15 15 16 16 15 14 14 13 15 16 14 15 17 16 17 18 17 16 18 19
1 3 2 2 1 1 1 2 2 3 3 2 1 2 1 2 2 4 6 7 8 10 11 10 10 11 10 10 9 8 9 9 9 9 11 13 18 23 26 28 30 29 22 14 7 5 6 4 3 4 1 5 11 16 25 23 21 25 28 29 30 30 31 30 30 30 30 29 27 25 22 20 19 19 18 17 17 16 15 16 15 15 16 15 14 16 15 11 10 12 13 15 17 16 17 18 17
5 3 2 3 3 2 1 2 2 1 2 1 3 3 1 2 2 3 5 7 8 11 11 10 10 10 10 9 9 10 10 10 11 11 12 14 19 23 26 27 30 31 29 23 13 6 8 9 6 6 3 3 9 9 18 20 18 20 24 27 28 29 31 30 29 30 30 29 27 25 23 23 21 19 18 17 16 15 14 15 15 15 16 16 14 16 16 13 10 10 12 14 16 16 17 17 16
Wind_Direction
276 282 320 342 305 312 295 220 113 272 181 264 262 241 264 240 241 317 13 43 63 28 15 53 57 58 82 100 106 79 49 30 42 116 127 134 120 119 128 133 142 149 151 153 154 154 159 162 165 165 165 166 165 161 160 160 157 155 153 150 146 142 138 135 134 133 132 129 125 122 119 116 112 110 109 107 106 104 102 102 99 96 94 90 87 84 85 85 84 87 89 90 96 106 108 104 98
257 277 307 303 281 286 280 183 120 261 186 268 262 217 255 278 327 49 46 52 57 23 17 31 51 54 85 101 106 77 54 47 70 83 102 120 118 121 128 132 145 150 149 153 152 152 159 163 166 166 167 167 165 162 161 161 159 157 154 151 147 142 138 135 134 134 133 130 126 122 119 118 114 113 111 109 108 105 105 104 100 99 97 93 89 86 85 84 82 81 87 89 98 112 113 111 110
251 273 297 295 268 238 295 293 194 245 221 256 269 240 236 275 86 90 68 71 66 32 14 10 40 36 71 79 72 74 91 84 86 84 107 120 118 127 132 133 142 147 148 150 152 153 158 162 167 168 167 167 166 162 162 161 160 158 154 150 146 142 138 135 134 134 133 131 127 123 121 120 116 115 113 109 108 107 109 108 103 102 99 96 91 89 88 85 83 78 81 83 99 117 118 116 116
260 263 281 296 279 219 317 231 193 213 237 252 277 285 128 103 64 76 71 81 87 56 28 33 46 24 68 86 81 85 104 112 111 107 114 123 125 133 133 130 134 142 143 146 154 155 158 162 167 168 167 167 164 162 163 162 160 158 153 149 144 142 138 134 134 133 132 131 129 127 126 121 116 118 114 110 113 113 115 111 106 106 101 99 95 93 90 85 84 81 80 76 97 118 123 121 119
268 257 262 264 294 207 175 241 206 198 225 224 251 309 53 68 27 39 36 75 134 111 87 76 74 37 60 74 83 100 107 103 110 109 113 122 126 132 134 131 132 139 139 146 158 157 157 162 167 166 166 165 162 161 163 162 160 157 153 150 146 141 137 135 136 136 136 134 132 132 131 125 119 119 114 115 121 119 117 113 112 111 104 100 95 95 90 84 82 81 81 76 94 117 126 126 122
278 280 265 236 250 307 32 261 255 241 242 231 231 285 57 71 30 349 330 336 118 119 127 86 97 96 71 55 48 61 115 119 109 113 122 130 132 131 133 131 132 138 142 153 163 158 155 161 165 164 165 164 162 161 162 162 159 156 153 153 149 142 138 138 139 140 140 136 133 134 136 132 125 121 117 119 122 118 117 116 115 113 108 104 100 97 92 90 87 82 82 79 90 113 126 130 126
269 297 275 207 258 296 207 253 258 261 261 250 218 220 66 65 53 348 346 16 30 88 131 111 107 97 82 95 52 39 98 123 124 129 129 135 143 138 132 132 134 139 145 159 164 156 153 160 162 162 164 163 163 161 159 159 158 154 153 153 150 145 142 141 142 144 142 137 133 132 140 138 131 127 122 123 122 117 119 118 118 119 115 112 107 102 98 96 92 85 83 80 89 108 125 133 131
244 263 297 148 262 251 207 250 250 249 267 262 184 131 78 67 67 18 353 1 341 112 146 150 114 89 67 91 88 54 88 115 124 132 133 134 143 141 139 139 138 140 149 158 158 152 152 159 160 161 162 162 162 158 156 156 155 153 153 153 149 146 143 141 143 146 144 141 135 128 139 142 137 133 129 129 125 122 126 124 124 127 121 117 109 105 106 101 92 86 82 83 92 107 124 134 133
233 221 285 192 226 259 242 252 247 243 254 237 155 123 103 101 111 89 335 309 292 194 190 185 109 99 104 88 94 76 85 112 121 129 138 140 141 141 143 142 139 141 149 153 150 148 151 158 158 160 161 160 159 155 156 154 152 151 154 154 149 145 142 141 142 147 148 145 136 129 137 144 143 138 136 135 130 130 134 132 131 131 124 117 111 108 108 98 88 84 81 90 101 111 123 133 131
219 196 210 245 232 266 263 259 257 255 238 190 142 111 99 86 97 101 312 286 302 313 138 98 91 108 119 93 91 105 113 122 123 131 141 144 146 144 143 141 142 145 148 147 147 147 149 157 158 159 159 157 157 155 155 153 151 151 156 157 150 145 143 143 142 146 148 144 138 134 137 144 147 144 143 141 137 138 141 143 140 133 124 117 113 110 100 87 82 83 83 99 110 117 124 130 129
236 216 183 243 251 252 254 255 259 262 207 163 109 96 108 132 95 54 359 310 333 356 44 77 91 102 96 84 97 128 135 135 134 141 148 149 147 139 137 141 146 152 151 145 146 145 147 155 156 158 157 155 155 154 154 153 153 155 158 157 150 147 146 146 142 141 143 142 140 139 138 143 150 149 148 146 142 145 151 154 140 129 126 121 118 112 99 84 80 83 85 103 118 123 126 129 125
238 251 176 227 236 230 246 258 261 271 208 119 90 127 202 115 91 47 28 339 355 43 50 80 120 107 91 93 112 129 135 143 144 149 156 152 147 138 135 143 150 154 151 145 145 145 148 153 154 155 155 154 154 153 154 155 156 157 156 153 151 150 147 143 139 138 141 142 143 144 143 147 152 150 150 151 150 151 155 151 136 131 133 126 120 111 99 90 86 88 89 102 120 129 130 129 118
215 246 205 234 239 243 266 273 274 310 1 49 195 234 217 83 68 53 33 330 7 55 60 88 116 96 91 120 116 125 132 152 152 155 159 150 148 143 136 142 150 150 147 145 145 147 148 151 153 152 152 154 153 152 155 156 157 158 155 153 152 151 147 143 142 143 145 146 148 149 148 152 156 153 152 156 158 155 151 144 137 136 137 132 119 101 97 100 97 95 95 100 116 133 135 127 112
214 233 211 252 273 279 282 278 284 24 254 252 272 319 359 74 98 98 71 356 51 84 102 94 107 95 94 145 139 169 180 171 161 158 155 145 147 145 140 143 145 144 144 146 145 146 148 150 150 148 150 152 152 153 156 158 158 159 158 157 156 154 151 148 150 152 152 152 152 153 152 154 156 157 156 160 163 157 148 141 139 139 137 135 113 99 106 112 106 104 102 100 111 134 138 126 113
215 241 231 263 287 284 276 270 283 103 226 266 92 320 352 65 105 96 69 102 90 116 112 89 102 108 148 179 185 200 188 177 167 160 149 142 146 144 146 146 140 140 143 144 140 142 145 146 147 146 149 150 151 154 158 160 160 162 162 163 161 158 156 156 160 160 158 156 156 157 156 154 154 158 160 163 165 160 154 146 143 143 139 128 109 114 123 119 116 115 109 102 109 131 139 127 117
212 239 253 267 268 278 277 280 313 85 248 335 60 341 59 79 70 88 64 109 94 70 81 73 55 129 173 181 181 178 176 175 168 161 149 141 143 140 144 145 140 140 141 140 137 139 143 144 145 144 148 150 152 156 160 162 163 166 166 166 163 161 162 164 166 167 163 160 160 159 157 158 158 160 163 166 168 165 162 158 154 150 141 128 124 138 136 126 124 123 115 107 110 124 134 128 117
215 222 243 260 255 262 269 284 10 122 261 27 37 350 39 55 5 81 246 88 93 87 86 80 78 120 170 168 159 163 170 172 166 164 153 140 142 140 142 144 139 139 140 138 137 139 141 142 142 142 147 148 150 157 162 164 165 167 166 165 165 165 167 168 169 169 167 164 163 161 160 164 166 166 167 170 173 175 176 175 170 166 158 143 143 151 143 130 123 128 122 113 115 121 126 125 117
217 202 219 244 249 244 260 262 102 162 121 34 45 353 35 47 352 328 291 94 108 103 95 91 85 93 122 139 149 158 165 171 172 168 155 143 146 145 147 148 141 138 137 135 136 139 140 142 142 141 143 146 153 161 165 164 165 166 167 169 169 170 171 172 172 171 169 166 167 167 167 171 172 170 172 174 176 180 184 186 183 182 177 162 153 156 148 133 123 132 131 124 125 126 126 125 119
212 203 212 231 229 239 267 18 75 66 35 9 50 35 26 14 344 333 15 86 110 100 76 64 76 97 116 134 147 157 162 167 167 149 150 154 151 151 157 152 140 137 136 135 137 138 142 145 143 140 139 145 160 170 170 167 166 169 173 175 175 174 176 176 174 174 171 168 170 172 174 178 175 169 168 172 176 182 187 189 190 188 184 172 161 157 152 141 131 135 138 133 134 134 133 130 121
209 200 231 244 235 266 287 23 61 40 43 13 12 24 346 338 3 346 357 40 94 110 115 85 105 136 135 144 151 154 136 94 70 74 184 177 152 159 163 152 140 140 138 138 142 146 152 149 143 145 147 151 162 170 169 167 168 172 176 177 177 176 178 178 175 178 177 174 175 177 177 179 177 170 163 163 171 181 186 188 188 187 186 178 168 160 157 153 144 141 143 142 143 141 139 132 120
194 195 224 253 268 283 298 62 63 45 56 21 339 348 324 315 51 342 337 18 101 145 183 164 161 162 154 154 140 116 83 70 99 171 204 193 184 195 175 162 143 141 144 147 153 154 152 150 151 158 160 158 161 162 161 165 171 175 177 176 176 178 180 177 177 181 181 179 180 180 177 176 176 172 168 167 171 178 182 184 184 187 184 174 169 163 161 161 156 149 147 150 152 147 144 136 127
196 220 225 238 257 265 288 66 79 75 61 20 323 306 292 309 20 335 322 287 193 184 195 172 161 159 155 145 110 86 86 119 179 184 189 191 195 231 214 161 132 141 150 151 155 153 149 154 162 166 165 164 163 160 158 164 172 177 177 175 176 179 180 179 180 183 182 182 183 181 176 175 174 171 172 170 169 172 176 179 178 176 171 167 166 165 166 167 166 159 148 153 163 161 155 156 180
221 250 234 236 246 255 282 9 92 86 55 13 318 298 320 8 350 303 302 282 191 174 181 164 154 149 146 131 109 103 130 176 181 173 193 206 192 189 288 89 128 149 144 134 143 151 152 157 164 166 166 168 163 158 159 164 169 174 176 174 179 180 181 184 185 187 187 185 187 185 179 177 174 170 169 165 164 168 170 172 163 145 147 158 160 161 168 173 171 164 153 150 165 171 168 184 211
230 258 251 253 252 256 274 285 110 103 107 259 297 329 338 355 322 296 299 291 168 163 167 153 143 138 141 125 122 139 165 183 176 186 198 209 206 169 98 104 141 144 131 133 144 152 158 163 168 168 167 166 160 158 163 168 168 172 175 176 181 183 183 188 189 190 190 188 190 190 187 183 178 171 166 164 164 166 164 161 151 139 136 147 153 149 158 174 175 170 167 164 172 180 190 213 218
221 246 255 266 270 268 274 275 294 108 158 237 279 294 287 267 269 281 278 295 143 148 154 144 131 128 134 125 139 159 167 177 180 197 205 201 209 123 102 123 143 131 135 149 149 154 165 169 173 172 168 166 161 161 169 174 171 172 176 178 182 184 185 189 191 192 189 187 188 191 192 186 182 175 168 168 167 165 164 160 161 165 152 149 159 156 158 175 177 176 174 176 189 198 209 230 224
207 231 249 258 270 276 273 261 228 197 192 194 231 246 253 242 244 270 263 280 111 134 148 142 129 134 140 137 154 165 161 169 169 174 247 226 2 60 106 126 147 157 153 152 150 159 167 168 172 171 168 167 165 166 172 177 176 175 178 179 182 184 186 190 193 194 189 185 185 187 191 188 185 181 172 172 172 168 166 166 175 186 180 171 172 175 183 186 180 183 185 190 207 212 219 234 225
204 223 253 255 268 278 279 277 223 202 203 189 225 248 261 253 225 249 250 250 160 137 151 142 131 142 148 148 154 159 150 129 125 114 67 33 18 47 117 127 155 185 166 154 155 162 166 166 170 170 169 169 168 169 174 177 179 178 178 180 184 185 186 190 196 198 192 185 187 189 190 187 184 182 176 175 175 172 170 173 180 185 185 184 175 174 190 197 192 197 207 220 218 213 220 225 215
295 273 268 268 294 302 298 299 284 242 179 198 233 257 270 275 245 238 239 251 196 146 150 137 133 145 145 148 145 138 126 125 143 143 138 143 80 106 144 148 172 189 176 163 160 163 168 168 166 168 171 171 169 169 173 177 180 180 178 180 184 186 186 189 196 199 194 187 189 192 191 186 183 181 178 176 178 176 174 173 173 174 175 178 181 177 186 202 199 202 220 230 213 210 212 201 181
286 286 295 289 304 287 265 262 259 237 195 195 204 266 270 251 243 246 237 255 226 144 141 134 138 149 142 141 139 135 128 140 154 159 172 162 133 141 153 168 185 188 180 167 163 164 168 168 165 167 168 167 168 169 172 175 178 181 182 183 184 186 186 186 189 192 193 191 191 193 191 186 183 183 181 178 178 175 171 165 159 162 174 182 189 192 193 189 187 198 216 213 186 181 175 147 108
254 262 280 295 313 269 243 232 224 215 213 191 165 256 267 242 239 246 231 239 226 142 139 142 149 159 148 140 139 147 144 151 162 173 175 149 135 146 152 173 190 190 182 165 164 165 165 166 165 169 168 166 168 170 171 171 174 180 185 189 189 190 189 184 184 187 192 195 194 193 190 186 184 184 181 177 173 171 168 161 156 160 179 191 193 198 197 182 187 204 220 187 152 155 153 128 110
249 270 267 229 262 264 243 214 203 209 208 162 139 219 257 255 252 252 232 233 220 139 146 153 158 167 156 144 138 148 164 177 182 181 167 138 140 150 156 173 176 191 189 163 164 168 166 165 162 167 168 166 167 167 169 169 171 178 184 189 190 193 195 189 188 189 192 195 193 190 188 184 182 180 179 175 169 167 166 164 166 165 178 196 196 198 192 184 195 205 228 164 132 142 149 130 136
211 241 287 226 210 254 256 218 197 197 186 142 133 217 262 261 255 259 246 230 201 134 149 159 159 169 160 152 138 136 162 186 191 188 153 127 139 150 165 175 157 184 203 171 168 170 165 165 164 165 162 163 162 158 163 168 172 180 183 185 188 192 196 196 196 195 194 196 192 186 184 182 181 179 179 173 164 162 165 171 181 181 192 198 191 193 191 190 198 183 162 143 126 133 141 127 140
215 179 237 238 222 250 267 233 195 186 173 143 137 185 265 271 257 272 269 221 171 131 148 158 158 165 159 156 142 138 161 171 198 201 140 121 137 149 165 173 148 170 214 186 172 170 164 164 168 167 162 163 157 149 157 165 173 180 179 180 185 191 195 197 198 195 193 197 194 187 183 182 182 181 180 176 170 171 172 175 188 192 194 191 184 190 189 182 200 185 125 128 145 161 145 131 135
264 204 219 240 238 246 270 231 181 175 160 146 150 187 249 273 273 289 317 130 129 129 149 158 158 162 163 161 155 156 172 179 203 204 139 122 135 144 153 168 151 159 202 202 177 169 165 164 169 166 163 166 158 149 155 161 170 177 176 177 182 188 193 197 196 191 190 195 195 188 185 184 181 180 183 180 175 179 182 185 194 197 194 189 185 187 181 164 186 177 132 129 166 169 152 145 141
229 207 208 241 248 245 244 196 171 170 150 149 160 197 245 265 274 289 336 113 128 144 152 162 165 163 166 162 161 167 175 187 205 181 134 127 138 148 153 163 162 158 178 202 186 169 167 165 165 161 161 166 160 153 156 161 170 178 182 178 178 183 186 191 194 191 190 193 192 187 185 184 180 180 184 180 174 179 188 194 196 196 203 198 187 184 183 170 155 155 155 152 164 170 160 154 148
238 230 205 228 253 260 240 179 176 173 151 155 168 193 239 260 276 294 311 123 152 164 156 164 170 166 167 165 167 170 177 189 169 133 129 135 147 154 153 156 166 162 164 192 194 172 167 162 160 158 157 162 161 155 155 159 165 178 190 183 177 178 177 185 191 192 194 193 190 187 185 183 181 184 188 183 180 187 190 190 186 187 207 207 192 191 192 186 164 157 166 160 159 167 157 147 150
256 268 254 267 278 289 279 175 171 160 137 187 190 184 244 284 297 301 317 16 281 209 177 170 170 167 167 167 171 169 176 169 131 127 131 140 150 154 157 159 167 163 154 181 198 178 167 159 158 159 158 163 164 159 158 160 164 173 187 188 182 183 181 183 187 191 196 194 190 189 187 186 185 189 193 188 188 194 189 187 183 183 206 208 195 196 197 195 187 175 164 158 160 162 152 146 151
268 285 313 318 296 290 296 183 169 130 108 198 177 103 326 315 309 300 305 324 274 225 204 187 167 165 169 170 178 176 171 142 128 134 133 139 148 155 161 163 167 163 148 164 195 178 167 161 158 160 163 167 166 165 165 165 167 174 183 188 187 188 189 185 186 191 195 194 190 189 189 190 191 192 196 194 193 194 189 189 187 188 205 205 192 193 198 199 193 187 169 158 161 161 154 151 150
273 287 285 292 287 310 316 185 156 92 112 190 141 107 285 289 294 297 301 293 268 231 200 186 165 167 179 181 184 177 172 161 147 155 143 142 150 155 160 164 167 160 142 144 181 177 170 164 160 164 168 170 169 170 169 167 168 173 182 187 186 188 189 189 191 191 195 196 188 187 190 192 195 196 197 196 193 191 190 190 189 195 205 203 197 195 199 200 190 182 170 161 160 157 154 158 157
309 314 269 268 287 314 311 302 171 298 208 170 130 121 258 291 304 300 285 266 269 271 221 188 172 174 183 188 188 175 177 190 173 165 157 150 153 154 158 161 157 147 137 144 181 187 178 167 161 168 173 174 176 175 170 168 169 173 181 187 188 190 187 186 188 188 195 197 187 187 192 193 194 195 196 194 190 191 195 196 195 201 208 205 203 203 202 199 191 181 172 168 167 158 154 163 165
340 329 263 288 303 293 290 302 309 319 332 104 109 66 321 275 269 279 277 271 277 281 267 252 227 192 186 188 189 182 181 189 182 174 174 160 152 150 151 150 144 142 147 163 185 191 184 170 162 166 176 181 184 180 173 170 169 169 172 175 183 191 190 184 179 180 190 193 189 189 192 195 194 193 195 193 192 198 203 205 202 204 210 205 201 205 205 202 199 189 176 173 177 170 163 167 167
355 281 226 258 285 289 300 313 334 10 341 316 104 57 303 263 241 255 275 284 279 274 266 256 247 218 198 192 193 195 188 189 185 176 177 158 140 141 142 145 147 151 162 175 186 189 182 173 166 166 173 182 186 183 178 173 168 165 163 162 171 179 184 187 183 179 183 186 190 190 189 193 195 193 193 193 197 205 209 208 204 204 207 205 202 199 197 199 201 192 181 177 181 181 174 170 168
334 263 239 240 251 267 280 288 310 9 281 282 93 120 276 301 279 258 260 256 257 272 285 262 244 222 237 236 205 199 189 189 188 174 174 158 144 147 148 153 160 165 174 182 186 185 178 171 171 170 169 173 181 182 180 174 167 165 165 164 167 171 177 186 189 185 181 183 187 186 186 190 193 191 187 189 199 206 208 205 199 198 196 199 206 201 191 193 196 194 190 183 178 181 181 175 170
214 241 252 244 233 236 243 249 262 259 271 307 13 94 247 296 281 276 286 273 263 277 298 289 275 91 41 16 334 207 190 187 187 164 165 154 142 150 156 162 167 171 179 184 183 181 174 169 170 174 171 170 174 179 179 177 171 168 169 167 168 173 177 181 187 187 183 183 185 183 184 187 189 190 188 191 202 206 206 203 197 191 186 193 205 202 192 185 185 191 192 187 181 182 189 184 174
214 224 243 251 242 228 217 181 256 301 344 326 323 356 312 269 272 288 288 273 279 313 17 23 29 46 48 32 3 216 166 119 80 75 78 77 86 121 154 163 168 177 185 186 181 177 173 169 169 177 180 171 170 176 178 178 178 173 170 169 171 175 176 179 184 185 184 185 186 184 184 186 189 192 193 197 205 207 205 204 200 191 181 188 198 201 195 175 179 193 188 184 188 189 195 193 181
213 222 244 272 279 245 106 73 18 7 15 293 282 292 262 281 289 296 287 263 271 348 55 57 46 36 35 32 27 60 90 77 65 69 77 97 108 125 149 152 163 185 196 189 180 176 174 172 170 176 186 176 167 171 174 177 182 179 173 171 172 173 173 175 179 181 183 185 186 186 188 191 191 190 191 198 203 203 205 204 201 193 184 185 195 204 192 167 177 199 192 184 189 191 193 195 187
202 209 238 292 301 17 80 54 34 19 322 257 263 252 204 286 285 285 334 2 42 57 49 51 51 40 31 30 38 57 78 86 84 77 58 82 123 140 146 143 158 197 210 193 179 176 175 176 171 171 184 181 168 169 173 178 183 181 177 173 172 174 172 171 173 176 179 182 183 186 190 191 191 186 184 194 197 195 198 196 194 193 187 183 186 191 179 167 181 199 198 189 186 188 190 191 190
146 124 54 18 337 13 46 28 58 232 266 253 261 271 245 249 285 310 43 50 54 59 49 46 50 45 39 32 37 46 55 67 73 79 61 48 103 129 133 139 155 182 203 200 181 181 179 176 171 167 178 181 173 172 174 177 184 184 179 174 173 174 173 170 171 174 178 182 182 183 184 186 188 185 182 190 194 190 189 187 189 186 178 174 168 168 172 175 182 191 199 196 189 189 189 191 193
104 79 50 81 335 1 45 349 184 208 243 232 228 261 253 198 353 16 57 59 51 56 57 56 53 47 43 35 37 40 36 38 32 35 44 34 46 54 71 114 132 146 167 179 182 212 213 189 178 173 179 182 177 175 176 179 186 187 180 176 175 175 175 173 174 176 179 181 180 178 178 182 183 180 179 187 188 186 184 185 187 179 173 168 156 156 171 179 181 188 197 197 193 194 193 194 197
148 164 148 144 160 64 198 231 219 218 241 231 188 163 264 149 41 24 62 65 57 58 52 54 58 50 42 34 35 37 32 33 26 22 28 23 34 38 36 55 66 77 141 181 183 196 235 246 216 190 183 186 182 177 178 182 188 188 184 181 178 176 176 176 177 178 178 179 177 172 172 175 175 173 174 177 175 173 176 181 182 176 175 164 146 151 169 177 179 184 189 191 191 197 198 198 199
184 178 151 153 166 160 201 210 191 210 255 286 113 101 161 141 268 350 65 69 60 60 50 50 53 48 46 37 31 32 29 30 21 16 22 15 19 24 26 32 31 38 93 185 196 202 204 212 250 249 202 190 187 181 180 184 188 187 185 183 180 178 176 177 179 178 177 177 173 165 165 168 169 169 169 169 168 165 166 169 165 164 172 164 147 153 166 172 175 178 184 190 191 194 198 198 197
228 170 140 174 196 171 202 229 203 177 104 353 294 108 100 142 172 24 58 63 53 51 47 48 48 43 48 42 33 33 30 30 23 17 17 11 16 18 20 19 0 323 240 228 225 221 206 194 213 275 265 209 191 186 184 186 187 186 185 183 180 177 175 176 178 176 173 172 168 163 162 163 165 164 160 159 160 156 153 154 149 149 160 161 153 155 161 168 175 176 181 187 189 191 197 197 193
277 140 170 206 204 174 188 268 259 129 106 263 222 123 33 101 84 24 30 47 47 40 38 45 45 43 47 44 38 34 31 31 24 17 12 5 13 18 17 14 360 325 219 222 230 237 224 204 202 228 255 250 211 192 190 188 186 186 186 184 180 176 173 173 173 172 169 166 163 163 161 160 157 152 149 149 151 149 150 153 148 145 154 158 156 158 161 167 175 178 177 180 186 190 193 194 193
212 275 220 202 201 195 167 246 302 64 114 252 182 128 41 356 23 5 10 29 40 37 33 36 35 37 42 38 34 31 30 31 24 22 22 10 10 11 8 3 358 5 72 201 238 246 235 232 228 204 213 235 232 211 206 195 188 187 187 184 181 176 171 171 172 170 167 162 160 160 158 153 150 146 145 145 147 150 156 160 155 149 150 152 152 156 160 165 175 180 176 179 186 190 189 191 193
188 230 262 92 158 227 265 150 226 149 161 269 135 112 74 38 6 358 9 17 33 42 36 35 35 35 39 35 30 28 25 24 23 27 29 22 16 11 8 7 7 13 28 36 276 249 222 230 254 241 229 233 230 232 232 212 192 187 184 182 179 174 170 170 169 166 163 160 158 156 151 148 148 148 148 148 149 150 151 155 155 148 145 147 145 149 156 165 175 177 177 179 184 189 191 187 186
200 227 277 68 168 199 232 198 190 146 165 239 67 82 60 17 344 9 25 20 38 56 48 42 39 35 38 36 29 26 24 21 20 23 29 29 22 15 12 11 12 15 17 20 25 22 36 43 321 330 284 264 257 249 245 230 202 188 182 179 175 171 169 167 164 162 160 156 153 152 150 149 149 148 149 149 149 149 145 146 150 147 148 150 146 146 152 162 170 173 177 182 183 186 190 187 183
297 246 281 333 337 207 222 207 179 135 151 189 113 69 304 289 355 30 50 42 49 63 57 49 42 34 35 34 26 22 21 20 18 19 25 26 21 17 15 14 14 13 8 4 18 40 38 36 38 53 148 284 311 275 249 239 215 192 182 178 174 169 167 165 162 160 156 152 151 151 149 147 146 146 148 146 146 149 146 145 148 149 149 151 152 153 156 158 162 165 171 178 179 178 181 183 183
70 38 17 30 38 69 48 322 306 74 97 146 124 119 276 314 6 31 55 53 53 59 58 53 41 32 32 29 24 21 17 16 16 18 24 25 20 16 13 14 16 13 4 358 360 16 30 35 55 87 134 299 343 302 247 234 219 201 185 178 175 170 166 163 160 158 154 152 152 149 147 146 146 146 148 148 147 149 150 152 155 157 155 153 152 156 161 162 164 168 169 173 176 173 173 179 180